VK3TI-1 Weather Reports


time (UTC)temp
C
wind
direction
speed
KPH
gust
KPH
rain 1hr
cm
rain 24hr
cm
rain mn
cm
humidity
%
barometer
mb
20260510033109 16 244 0.0 0.0 0.00 0.00 0.00 62 1030.8
20260510031553 15 130 0.0 8.0 0.00 0.00 0.00 63 1030.8
20260510030059 15 164 0.0 0.0 0.00 0.00 0.00 65 1030.9
20260510024544 15 101 0.0 1.6 0.00 0.00 0.00 66 1031.2
20260510023043 15 272 0.0 6.4 0.00 0.00 0.00 65 1031.4
20260510021540 15 186 0.0 1.6 0.00 0.00 0.00 67 1031.5
20260510020039 15 157 0.0 8.0 0.00 0.00 0.00 68 1031.7
20260510014536 15 207 0.0 1.6 0.00 0.00 0.00 68 1031.9
20260510013033 15 215 0.0 0.0 0.00 0.00 0.00 69 1032.0
20260510011531 14 250 0.0 8.0 0.00 0.00 0.00 70 1032.2
20260510010027 14 194 0.0 6.4 0.00 0.00 0.00 71 1032.2
20260510004524 14 144 0.0 6.4 0.00 0.00 0.00 73 1032.1
20260510003034 13 132 0.0 0.0 0.00 0.00 0.00 75 1032.1
20260510001524 13 147 0.0 0.0 0.00 0.00 0.00 78 1032.2
20260510000020 13 155 0.0 3.2 0.00 0.00 0.00 83 1032.1
20260509234521 12 152 0.0 1.6 0.00 0.00 0.00 90 1032.0
20260509233010 12 190 0.0 0.0 0.00 0.00 0.00 93 1032.0
20260509231512 12 191 0.0 0.0 0.00 0.00 0.00 94 1032.1
20260509230006 12 193 0.0 0.0 0.00 0.00 0.00 94 1032.1
20260509224502 12 193 0.0 0.0 0.00 0.00 0.00 94 1031.9
20260509223059 12 193 0.0 0.0 0.00 0.00 0.00 94 1031.8
20260509221557 11 193 0.0 0.0 0.00 0.00 0.00 95 1031.6
20260509220055 11 193 0.0 0.0 0.00 0.00 0.00 94 1031.5
20260509214550 11 193 0.0 0.0 0.00 0.00 0.00 94 1031.3
20260509213100 11 193 0.0 0.0 0.00 0.00 0.00 94 1031.1
20260509211544 11 193 0.0 0.0 0.00 0.00 0.00 94 1030.8
20260509210058 11 193 0.0 0.0 0.00 0.00 0.00 94 1030.7
20260509204543 11 193 0.0 0.0 0.00 0.03 0.00 94 1030.5
20260509203042 11 193 0.0 0.0 0.00 0.03 0.00 94 1030.4
20260509201539 11 193 0.0 0.0 0.00 0.03 0.00 94 1030.3
20260509200036 11 193 0.0 0.0 0.00 0.03 0.00 94 1030.2
20260509194534 12 193 0.0 0.0 0.00 0.05 0.00 94 1030.1
20260509193039 12 194 0.0 0.0 0.00 0.05 0.00 94 1030.0
20260509191538 12 194 0.0 0.0 0.00 0.05 0.00 94 1029.9
20260509190029 12 194 0.0 0.0 0.00 0.05 0.00 94 1029.8
20260509184528 12 194 0.0 0.0 0.00 0.05 0.00 94 1029.6
20260509183030 12 194 0.0 0.0 0.00 0.05 0.00 94 1029.4
20260509181526 12 194 0.0 0.0 0.00 0.05 0.00 94 1029.4
20260509180025 12 194 0.0 0.0 0.00 0.05 0.00 94 1029.2
20260509174524 12 194 0.0 0.0 0.00 0.05 0.00 93 1029.2
20260509173022 12 194 0.0 0.0 0.00 0.05 0.00 93 1029.2
20260509171522 12 194 0.0 0.0 0.00 0.05 0.00 93 1029.2
20260509170020 12 194 0.0 0.0 0.00 0.05 0.00 93 1029.2
20260509164531 12 194 0.0 0.0 0.00 0.20 0.00 93 1029.4
20260509163018 12 194 0.0 0.0 0.00 0.20 0.00 93 1029.3
20260509161516 12 194 0.0 0.0 0.00 0.20 0.00 93 1029.4
20260509160014 12 194 0.0 0.0 0.00 0.20 0.00 92 1029.4
20260509154512 12 194 0.0 0.0 0.00 0.20 0.00 92 1029.5
20260509153010 12 194 0.0 0.0 0.00 0.20 0.00 92 1029.5
20260509151509 12 194 0.0 0.0 0.00 0.20 0.00 92 1029.5
20260509150007 12 194 0.0 0.0 0.00 0.20 0.00 92 1029.5
20260509144505 12 194 0.0 0.0 0.00 0.20 0.00 91 1029.5
20260509143004 12 194 0.0 0.0 0.00 0.20 0.00 91 1029.6
20260509141503 12 194 0.0 0.0 0.00 0.20 0.00 91 1029.6
20260509140106 12 194 0.0 0.0 0.00 0.20 0.00 90 1029.6
20260509140002 12 194 0.0 0.0 0.00 0.20 0.20 90 1029.6
20260509134610 12 194 0.0 0.0 0.00 0.20 0.20 90 1029.6
20260509133059 12 194 0.0 0.0 0.00 0.20 0.20 89 1029.5
20260509131558 12 194 0.0 0.0 0.00 0.20 0.20 89 1029.6
20260509130100 12 194 0.0 0.0 0.00 0.20 0.20 90 1029.6
20260509124604 12 194 0.0 0.0 0.00 0.20 0.20 90 1029.6
20260509123056 12 194 0.0 0.0 0.00 0.20 0.20 91 1029.6
20260509121606 12 195 0.0 0.0 0.00 0.20 0.20 91 1029.6
20260509120112 12 192 0.0 0.0 0.00 0.20 0.20 91 1029.7
20260509114552 12 192 0.0 0.0 0.00 0.20 0.20 91 1029.5
20260509113055 12 192 0.0 0.0 0.00 0.20 0.20 91 1029.4
20260509111551 12 192 0.0 0.0 0.00 0.20 0.20 90 1029.3
20260509110050 12 192 0.0 0.0 0.00 0.20 0.20 90 1029.2
20260509104545 12 193 0.0 0.0 0.00 0.20 0.20 89 1029.2
20260509103042 12 193 0.0 0.0 0.00 0.20 0.20 89 1029.2
20260509101551 12 193 0.0 0.0 0.00 0.20 0.20 88 1029.2
20260509100045 12 193 0.0 0.0 0.00 0.20 0.20 88 1029.2
20260509094539 13 192 0.0 0.0 0.00 0.23 0.20 88 1029.2
20260509093039 13 214 0.0 0.0 0.00 0.23 0.20 88 1029.1
20260509091537 13 213 0.0 1.6 0.00 0.23 0.20 88 1029.0
20260509090042 13 213 0.0 0.0 0.00 0.23 0.20 88 1028.9
20260509084543 13 213 0.0 0.0 0.00 0.23 0.20 88 1028.7
20260509083033 13 210 0.0 3.2 0.00 0.23 0.20 88 1028.6
20260509081534 13 224 0.0 6.4 0.00 0.23 0.20 88 1028.5
20260509080037 13 229 0.0 4.8 0.00 0.23 0.20 87 1028.3
20260509074532 13 213 0.0 0.0 0.00 0.23 0.20 86 1028.1
20260509073059 13 201 0.0 12.9 0.00 0.23 0.20 85 1028.0
20260509071536 14 283 0.0 9.7 0.00 0.23 0.20 84 1027.9
20260509070032 14 240 1.6 11.3 0.00 0.23 0.20 82 1027.8
20260509064530 14 217 1.6 11.3 0.00 0.23 0.20 82 1027.8
20260509063032 14 247 3.2 11.3 0.00 0.23 0.20 83 1027.7
20260509061529 14 196 0.0 12.9 0.00 0.23 0.20 82 1027.6
20260509060037 15 221 1.6 12.9 0.00 0.23 0.20 81 1027.6
20260509054527 15 275 0.0 9.7 0.00 0.23 0.20 81 1027.5
20260509053031 15 253 0.0 11.3 0.00 0.23 0.20 82 1027.5
20260509051526 15 207 0.0 9.7 0.00 0.23 0.20 81 1027.4
20260509050027 15 265 1.6 12.9 0.00 0.23 0.20 81 1027.4
20260509044533 15 250 1.6 17.7 0.00 0.25 0.20 81 1027.4
20260509043033 15 242 3.2 12.9 0.00 0.25 0.20 79 1027.5
20260509041523 15 264 3.2 12.9 0.00 0.25 0.20 81 1027.5
20260509040024 15 246 3.2 11.3 0.00 0.25 0.20 81 1027.5
20260509034534 15 259 3.2 11.3 0.00 0.33 0.20 80 1027.5